Time,TemperatureF,DewpointF,PressureIn,WindDirection,WindDirectionDegrees,WindSpeedMPH,WindSpeedGustMPH,Humidity,HourlyPrecipIn,Conditions,Clouds,dailyrainin,SoftwareType,DateUTC
2013-01-23 00:02:00,29.7,18.0,30.36,NW,315,0.0,0.0,62,0.00,,,0.00,weatherlink.com 1.10,2013-01-23 06:02:00,
2013-01-23 00:17:00,29.0,19.0,30.36,NW,315,0.0,0.0,65,0.00,,,0.00,weatherlink.com 1.10,2013-01-23 06:17:00,
2013-01-23 00:32:00,28.3,18.0,30.36,NW,315,0.0,0.0,66,0.00,,,0.00,weatherlink.com 1.10,2013-01-23 06:32:00,
2013-01-23 00:47:00,27.8,18.0,30.36,NW,315,0.0,0.0,68,0.00,,,0.00,weatherlink.com 1.10,2013-01-23 06:47:00,
2013-01-23 01:02:00,27.0,18.0,30.36,NW,315,0.0,0.0,69,0.00,,,0.00,weatherlink.com 1.10,2013-01-23 07:02:00,
2013-01-23 01:17:00,26.3,18.0,30.36,NW,315,0.0,0.0,71,0.00,,,0.00,weatherlink.com 1.10,2013-01-23 07:17:00,
2013-01-23 01:32:00,26.5,19.0,30.36,NW,314,0.0,0.0,72,0.00,,,0.00,weatherlink.com 1.10,2013-01-23 07:32:00,
2013-01-23 01:47:00,25.4,17.0,30.36,NW,315,0.0,0.0,71,0.00,,,0.00,weatherlink.com 1.10,2013-01-23 07:47:00,
2013-01-23 02:02:00,25.9,19.0,30.36,NW,314,0.0,0.0,74,0.00,,,0.00,weatherlink.com 1.10,2013-01-23 08:02:00,
2013-01-23 02:17:00,26.6,19.0,30.37,NNW,331,0.0,1.0,73,0.00,,,0.00,weatherlink.com 1.10,2013-01-23 08:17:00,
2013-01-23 02:32:00,26.2,19.0,30.36,NNW,331,0.0,0.0,73,0.00,,,0.00,weatherlink.com 1.10,2013-01-23 08:32:00,
2013-01-23 02:47:00,25.7,19.0,30.36,NNW,332,0.0,0.0,76,0.00,,,0.00,weatherlink.com 1.10,2013-01-23 08:47:00,
2013-01-23 03:17:00,25.9,19.0,30.36,NNW,332,0.0,1.0,76,0.00,,,0.00,weatherlink.com 1.10,2013-01-23 09:17:00,
2013-01-23 03:32:00,25.2,19.0,30.36,NNW,332,0.0,0.0,77,0.00,,,0.00,weatherlink.com 1.10,2013-01-23 09:32:00,
2013-01-23 03:47:00,25.1,19.0,30.36,NNW,331,0.0,0.0,78,0.00,,,0.00,weatherlink.com 1.10,2013-01-23 09:47:00,
2013-01-23 04:02:00,24.8,19.0,30.35,NNW,332,0.0,0.0,78,0.00,,,0.00,weatherlink.com 1.10,2013-01-23 10:02:00,
2013-01-23 04:17:00,24.7,19.0,30.35,NNW,332,0.0,0.0,79,0.00,,,0.00,weatherlink.com 1.10,2013-01-23 10:17:00,
2013-01-23 04:32:00,24.3,19.0,30.34,NNW,331,0.0,0.0,80,0.00,,,0.00,weatherlink.com 1.10,2013-01-23 10:32:00,
2013-01-23 04:47:00,24.3,19.0,30.34,NNW,332,0.0,1.0,80,0.00,,,0.00,weatherlink.com 1.10,2013-01-23 10:47:00,
2013-01-23 05:02:00,23.6,19.0,30.35,NNW,331,0.0,0.0,81,0.00,,,0.00,weatherlink.com 1.10,2013-01-23 11:02:00,
2013-01-23 05:17:00,23.7,19.0,30.35,NNW,332,0.0,0.0,82,0.00,,,0.00,weatherlink.com 1.10,2013-01-23 11:17:00,
2013-01-23 05:32:00,23.3,19.0,30.34,NNW,332,0.0,0.0,82,0.00,,,0.00,weatherlink.com 1.10,2013-01-23 11:32:00,
2013-01-23 05:47:00,24.0,20.0,30.35,NNW,332,0.0,0.0,84,0.00,,,0.00,weatherlink.com 1.10,2013-01-23 11:47:00,
2013-01-23 06:01:00,23.4,19.0,30.34,NNW,332,0.0,0.0,83,0.00,,,0.00,weatherlink.com 1.10,2013-01-23 12:01:00,
2013-01-23 06:17:00,23.2,19.0,30.34,NNW,332,0.0,0.0,85,0.00,,,0.00,weatherlink.com 1.10,2013-01-23 12:17:00,
2013-01-23 06:32:00,22.6,19.0,30.35,NNW,332,0.0,0.0,86,0.00,,,0.00,weatherlink.com 1.10,2013-01-23 12:32:00,
2013-01-23 06:47:00,23.2,20.0,30.35,NNW,331,0.0,0.0,88,0.00,,,0.00,weatherlink.com 1.10,2013-01-23 12:47:00,
2013-01-23 07:17:00,22.9,20.0,30.35,NNW,331,0.0,0.0,88,0.00,,,0.00,weatherlink.com 1.10,2013-01-23 13:17:00,
2013-01-23 07:32:00,23.6,21.0,30.34,NE,48,0.0,0.0,88,0.00,,,0.00,weatherlink.com 1.10,2013-01-23 13:32:00,
2013-01-23 07:47:00,25.1,22.0,30.34,NNE,16,0.0,1.0,86,0.00,,,0.00,weatherlink.com 1.10,2013-01-23 13:47:00,
2013-01-23 08:03:00,26.9,23.0,30.34,NNE,13,0.0,1.0,85,0.00,,,0.00,weatherlink.com 1.10,2013-01-23 14:03:00,
2013-01-23 08:18:00,30.9,25.0,30.34,SSW,195,0.0,1.0,80,0.00,,,0.00,weatherlink.com 1.10,2013-01-23 14:18:00,
2013-01-23 08:33:00,33.2,25.0,30.34,SW,232,0.0,2.0,71,0.00,,,0.00,weatherlink.com 1.10,2013-01-23 14:33:00,
2013-01-23 08:48:00,34.5,25.0,30.35,WSW,239,1.0,3.0,67,0.00,,,0.00,weatherlink.com 1.10,2013-01-23 14:48:00,
2013-01-23 09:03:00,36.6,25.0,30.36,SW,236,1.0,3.0,64,0.00,,,0.00,weatherlink.com 1.10,2013-01-23 15:03:00,
2013-01-23 09:18:00,38.0,26.0,30.36,SE,127,1.0,4.0,62,0.00,,,0.00,weatherlink.com 1.10,2013-01-23 15:18:00,
2013-01-23 09:33:00,40.1,27.0,30.35,SSW,212,1.0,3.0,60,0.00,,,0.00,weatherlink.com 1.10,2013-01-23 15:33:00,
2013-01-23 09:48:00,41.7,28.0,30.34,SSW,211,1.0,4.0,58,0.00,,,0.00,weatherlink.com 1.10,2013-01-23 15:48:00,
2013-01-23 10:03:00,43.1,29.0,30.34,East,80,1.0,7.0,58,0.00,,,0.00,weatherlink.com 1.10,2013-01-23 16:03:00,
2013-01-23 10:18:00,44.4,29.0,30.34,South,190,1.0,4.0,56,0.00,,,0.00,weatherlink.com 1.10,2013-01-23 16:18:00,
2013-01-23 10:33:00,45.6,30.0,30.34,SSW,207,0.0,4.0,55,0.00,,,0.00,weatherlink.com 1.10,2013-01-23 16:33:00,
2013-01-23 10:48:00,47.7,32.0,30.33,SSW,200,1.0,4.0,54,0.00,,,0.00,weatherlink.com 1.10,2013-01-23 16:48:00,
2013-01-23 11:03:00,48.9,32.0,30.32,WSW,254,2.0,4.0,53,0.00,,,0.00,weatherlink.com 1.10,2013-01-23 17:03:00,
2013-01-23 11:18:00,49.9,33.0,30.31,South,184,2.0,3.0,53,0.00,,,0.00,weatherlink.com 1.10,2013-01-23 17:18:00,
2013-01-23 11:33:00,50.0,34.0,30.31,SSE,153,0.0,3.0,54,0.00,,,0.00,weatherlink.com 1.10,2013-01-23 17:33:00,
2013-01-23 11:47:00,50.1,35.0,30.30,SSW,204,2.0,4.0,56,0.00,,,0.00,weatherlink.com 1.10,2013-01-23 17:47:00,
2013-01-23 12:03:00,49.6,34.0,30.28,SSW,204,1.0,6.0,56,0.00,,,0.00,weatherlink.com 1.10,2013-01-23 18:03:00,
2013-01-23 12:19:00,49.9,35.0,30.28,SW,221,3.0,7.0,56,0.00,,,0.00,weatherlink.com 1.10,2013-01-23 18:19:00,
2013-01-23 12:34:00,50.4,35.0,30.27,West,274,1.0,4.0,56,0.00,,,0.00,weatherlink.com 1.10,2013-01-23 18:34:00,
2013-01-23 12:49:00,50.5,35.0,30.25,South,181,1.0,7.0,55,0.00,,,0.00,weatherlink.com 1.10,2013-01-23 18:49:00,
2013-01-23 13:04:00,50.8,35.0,30.25,SSW,207,5.0,5.0,55,0.00,,,0.00,weatherlink.com 1.10,2013-01-23 19:04:00,
2013-01-23 13:19:00,52.5,36.0,30.23,ENE,73,1.0,6.0,54,0.00,,,0.00,weatherlink.com 1.10,2013-01-23 19:19:00,
2013-01-23 13:34:00,54.6,37.0,30.22,South,174,3.0,4.0,52,0.00,,,0.00,weatherlink.com 1.10,2013-01-23 19:34:00,
2013-01-23 13:49:00,55.1,37.0,30.23,SSW,199,1.0,3.0,51,0.00,,,0.00,weatherlink.com 1.10,2013-01-23 19:49:00,
2013-01-23 14:04:00,55.8,37.0,30.22,SW,236,2.0,6.0,50,0.00,,,0.00,weatherlink.com 1.10,2013-01-23 20:04:00,
2013-01-23 14:19:00,56.6,37.0,30.22,West,271,2.0,4.0,49,0.00,,,0.00,weatherlink.com 1.10,2013-01-23 20:19:00,
2013-01-23 14:34:00,56.7,37.0,30.22,SSW,203,4.0,6.0,48,0.00,,,0.00,weatherlink.com 1.10,2013-01-23 20:34:00,
2013-01-23 14:49:00,56.2,38.0,30.21,WSW,250,2.0,6.0,50,0.00,,,0.00,weatherlink.com 1.10,2013-01-23 20:49:00,
2013-01-23 15:03:00,56.6,37.0,30.20,ENE,60,1.0,5.0,49,0.00,,,0.00,weatherlink.com 1.10,2013-01-23 21:03:00,
2013-01-23 15:18:00,56.8,38.0,30.20,SSW,207,2.0,5.0,49,0.00,,,0.00,weatherlink.com 1.10,2013-01-23 21:18:00,
2013-01-23 15:33:00,56.4,37.0,30.19,SE,146,3.0,7.0,49,0.00,,,0.00,weatherlink.com 1.10,2013-01-23 21:33:00,
2013-01-23 15:48:00,56.2,38.0,30.20,SW,232,3.0,7.0,50,0.00,,,0.00,weatherlink.com 1.10,2013-01-23 21:48:00,
2013-01-23 16:03:00,55.9,37.0,30.19,SW,219,2.0,7.0,50,0.00,,,0.00,weatherlink.com 1.10,2013-01-23 22:03:00,
2013-01-23 16:18:00,55.9,37.0,30.19,WSW,238,2.0,6.0,50,0.00,,,0.00,weatherlink.com 1.10,2013-01-23 22:18:00,
2013-01-23 16:33:00,55.3,38.0,30.19,South,191,1.0,7.0,52,0.00,,,0.00,weatherlink.com 1.10,2013-01-23 22:33:00,
2013-01-23 16:48:00,54.1,37.0,30.19,SSW,204,3.0,4.0,53,0.00,,,0.00,weatherlink.com 1.10,2013-01-23 22:48:00,
2013-01-23 17:03:00,52.9,37.0,30.18,SSW,205,1.0,4.0,55,0.00,,,0.00,weatherlink.com 1.10,2013-01-23 23:03:00,
2013-01-23 17:18:00,51.9,37.0,30.18,SW,217,1.0,5.0,58,0.00,,,0.00,weatherlink.com 1.10,2013-01-23 23:18:00,
2013-01-23 17:33:00,50.8,37.0,30.18,SSW,204,0.0,2.0,59,0.00,,,0.00,weatherlink.com 1.10,2013-01-23 23:33:00,
2013-01-23 17:48:00,49.1,36.0,30.18,SSW,200,0.0,1.0,62,0.00,,,0.00,weatherlink.com 1.10,2013-01-23 23:48:00,
2013-01-23 18:03:00,47.5,36.0,30.18,SSW,200,0.0,0.0,65,0.00,,,0.00,weatherlink.com 1.10,2013-01-24 00:03:00,
2013-01-23 18:18:00,46.0,35.0,30.18,SSW,200,0.0,0.0,66,0.00,,,0.00,weatherlink.com 1.10,2013-01-24 00:18:00,
2013-01-23 18:33:00,44.7,36.0,30.18,SSW,198,0.0,0.0,71,0.00,,,0.00,weatherlink.com 1.10,2013-01-24 00:33:00,
2013-01-23 18:49:00,43.2,35.0,30.18,SSW,200,0.0,0.0,72,0.00,,,0.00,weatherlink.com 1.10,2013-01-24 00:49:00,
2013-01-23 19:03:00,41.7,35.0,30.19,SSW,200,0.0,0.0,76,0.00,,,0.00,weatherlink.com 1.10,2013-01-24 01:03:00,
2013-01-23 19:19:00,41.2,35.0,30.18,SSW,200,0.0,0.0,78,0.00,,,0.00,weatherlink.com 1.10,2013-01-24 01:19:00,
2013-01-23 19:33:00,40.5,34.0,30.18,SSW,200,0.0,0.0,79,0.00,,,0.00,weatherlink.com 1.10,2013-01-24 01:33:00,
2013-01-23 19:49:00,39.8,34.0,30.18,SSW,200,0.0,0.0,80,0.00,,,0.00,weatherlink.com 1.10,2013-01-24 01:49:00,
2013-01-23 20:04:00,39.2,34.0,30.19,SSW,200,0.0,0.0,82,0.00,,,0.00,weatherlink.com 1.10,2013-01-24 02:04:00,
2013-01-23 20:18:00,38.5,33.0,30.19,SSW,200,0.0,0.0,82,0.00,,,0.00,weatherlink.com 1.10,2013-01-24 02:18:00,
2013-01-23 20:33:00,38.1,34.0,30.20,SSW,200,0.0,0.0,86,0.00,,,0.00,weatherlink.com 1.10,2013-01-24 02:33:00,
2013-01-23 20:49:00,38.3,34.0,30.20,SSW,200,0.0,0.0,84,0.00,,,0.00,weatherlink.com 1.10,2013-01-24 02:49:00,
2013-01-23 21:03:00,37.6,34.0,30.21,SSW,200,0.0,0.0,85,0.00,,,0.00,weatherlink.com 1.10,2013-01-24 03:03:00,
2013-01-23 21:18:00,37.1,34.0,30.21,SSW,200,0.0,0.0,87,0.00,,,0.00,weatherlink.com 1.10,2013-01-24 03:18:00,
2013-01-23 21:33:00,36.4,33.0,30.21,SSW,200,0.0,0.0,88,0.00,,,0.00,weatherlink.com 1.10,2013-01-24 03:33:00,
2013-01-23 21:49:00,37.1,34.0,30.22,SSW,199,0.0,0.0,88,0.00,,,0.00,weatherlink.com 1.10,2013-01-24 03:49:00,
2013-01-23 22:04:00,38.1,35.0,30.22,SSW,200,0.0,0.0,87,0.00,,,0.00,weatherlink.com 1.10,2013-01-24 04:04:00,
2013-01-23 22:19:00,38.5,35.0,30.22,SSW,200,0.0,0.0,86,0.00,,,0.00,weatherlink.com 1.10,2013-01-24 04:19:00,
2013-01-23 22:34:00,38.9,35.0,30.22,SSW,198,0.0,1.0,85,0.00,,,0.00,weatherlink.com 1.10,2013-01-24 04:34:00,
2013-01-23 22:49:00,39.1,35.0,30.22,SSW,200,0.0,0.0,85,0.00,,,0.00,weatherlink.com 1.10,2013-01-24 04:49:00,
2013-01-23 23:04:00,39.0,35.0,30.22,South,174,0.0,0.0,86,0.00,,,0.00,weatherlink.com 1.10,2013-01-24 05:04:00,
2013-01-23 23:19:00,38.5,35.0,30.22,ENE,61,0.0,0.0,87,0.00,,,0.00,weatherlink.com 1.10,2013-01-24 05:19:00,
2013-01-23 23:34:00,38.1,35.0,30.22,ENE,61,0.0,0.0,87,0.00,,,0.00,weatherlink.com 1.10,2013-01-24 05:34:00,
2013-01-23 23:49:00,37.8,35.0,30.22,ENE,61,0.0,0.0,88,0.00,,,0.00,weatherlink.com 1.10,2013-01-24 05:49:00,